CW5091 Weather Reports


Display with metric or nautical units.
time (UTC)temp
F
wind
direction
speed
MPH
gust
MPH
rain 1hr
in
rain 24hr
in
rain mn
in
humidity
%
barometer
mb
20180426034843 64 314 0.0 0.0 0.00 0.00 0.00 28 1020.5
20180426034343 65 314 0.0 1.0 0.00 0.00 0.00 27 1019.9
20180426033833 66 314 0.0 2.0 0.00 0.00 0.00 27 1019.9
20180426033347 67 314 1.0 2.0 0.00 0.00 0.00 26 1019.9
20180426032839 67 314 0.0 1.0 0.00 0.00 0.00 25 1020.1
20180426032358 68 314 0.0 2.0 0.00 0.00 0.00 24 1020.1
20180426031842 69 314 0.0 3.0 0.00 0.00 0.00 23 1020.1
20180426031359 69 314 1.0 3.0 0.00 0.00 0.00 22 1019.7
20180426030843 69 304 1.0 3.0 0.00 0.00 0.00 22 1019.7
20180426030340 69 333 2.0 3.0 0.00 0.00 0.00 21 1019.7
20180426025851 69 333 1.0 3.0 0.00 0.00 0.00 22 1019.6
20180426025348 69 335 2.0 3.0 0.00 0.00 0.00 22 1019.6
20180426024845 69 353 1.0 2.0 0.00 0.00 0.00 23 1019.6
20180426024341 69 353 0.0 2.0 0.00 0.00 0.00 23 1019.6
20180426023852 69 353 0.0 2.0 0.00 0.00 0.00 24 1019.6
20180426023346 69 360 0.0 2.0 0.00 0.00 0.00 24 1019.6
20180426022831 69 360 1.0 2.0 0.00 0.00 0.00 25 1019.9
20180426022350 70 360 0.0 2.0 0.00 0.00 0.00 24 1019.9
20180426021836 71 360 0.0 1.0 0.00 0.00 0.00 23 1019.9
20180426021352 72 360 0.0 2.0 0.00 0.00 0.00 22 1019.9
20180426020835 73 360 0.0 2.0 0.00 0.00 0.00 21 1019.9
20180426020348 74 360 1.0 2.0 0.00 0.00 0.00 20 1019.9
20180426015837 74 360 0.0 2.0 0.00 0.00 0.00 20 1019.6
20180426015400 74 360 1.0 2.0 0.00 0.00 0.00 19 1019.6
20180426014844 75 360 0.0 3.0 0.00 0.00 0.00 19 1019.6
20180426014346 75 359 2.0 3.0 0.00 0.00 0.00 18 1019.6
20180426013848 75 338 0.0 4.0 0.00 0.00 0.00 18 1019.6
20180426013356 76 338 1.0 4.0 0.00 0.00 0.00 17 1019.6
20180426012839 76 337 2.0 4.0 0.00 0.00 0.00 16 1020.2
20180426012356 76 340 1.0 5.0 0.00 0.00 0.00 17 1020.2
20180426011836 77 320 2.0 7.0 0.00 0.00 0.00 15 1020.2
20180426011336 77 314 3.0 7.0 0.00 0.00 0.00 15 1020.2
20180426010847 78 333 1.0 5.0 0.00 0.00 0.00 16 1020.2
20180426010347 78 69 2.0 5.0 0.00 0.00 0.00 16 1020.2
20180426005835 78 349 1.0 4.0 0.00 0.00 0.00 16 1020.3
20180426005350 78 314 2.0 7.0 0.00 0.00 0.00 15 1020.3
20180426004835 78 314 3.0 7.0 0.00 0.00 0.00 15 1020.3
20180426004350 78 28 2.0 6.0 0.00 0.00 0.00 14 1019.9
20180426003836 79 354 2.0 6.0 0.00 0.00 0.00 14 1019.9
20180426003348 79 338 2.0 5.0 0.00 0.00 0.00 14 1019.9
20180426002838 79 343 3.0 5.0 0.00 0.00 0.00 14 1020.0
20180426002357 80 345 1.0 3.0 0.00 0.00 0.00 14 1020.0
20180426001831 79 26 1.0 3.0 0.00 0.00 0.00 13 1020.0
20180426001358 79 76 1.0 5.0 0.00 0.00 0.00 14 1020.1
20180426000843 80 76 2.0 5.0 0.00 0.00 0.00 12 1020.1
20180426000354 80 341 1.0 4.0 0.00 0.00 0.00 14 1020.1
20180425235836 80 14 1.0 3.0 0.00 0.00 0.00 13 1019.9
20180425235352 80 324 1.0 6.0 0.00 0.00 0.00 13 1019.9
20180425234852 80 2 2.0 7.0 0.00 0.00 0.00 13 1019.9
20180425234347 81 100 5.0 7.0 0.00 0.00 0.00 13 1020.0
20180425233847 80 89 3.0 5.0 0.00 0.00 0.00 13 1020.0
20180425233340 80 359 2.0 6.0 0.00 0.00 0.00 13 1020.0
20180425232842 80 79 3.0 4.0 0.00 0.00 0.00 12 1020.4
20180425232356 80 61 2.0 4.0 0.00 0.00 0.00 13 1020.4
20180425231843 79 320 0.0 4.0 0.00 0.00 0.00 13 1020.4
20180425231356 79 11 1.0 4.0 0.00 0.00 0.00 12 1020.2
20180425230838 80 326 2.0 4.0 0.00 0.00 0.00 12 1020.2
20180425230333 79 344 2.0 4.0 0.00 0.00 0.00 12 1020.2
20180425225839 80 24 2.0 4.0 0.00 0.00 0.00 12 1020.2
20180425225338 79 98 0.0 4.0 0.00 0.00 0.00 14 1020.2
20180425224838 79 89 3.0 4.0 0.00 0.00 0.00 12 1020.2
20180425224354 79 61 1.0 4.0 0.00 0.00 0.00 12 1020.2
20180425223835 79 42 2.0 4.0 0.00 0.00 0.00 13 1020.2
20180425223332 79 15 1.0 4.0 0.00 0.00 0.00 12 1020.2
20180425222840 79 24 2.0 4.0 0.00 0.00 0.00 13 1020.4
20180425222356 80 360 2.0 4.0 0.00 0.00 0.00 14 1020.4
20180425221838 80 92 1.0 4.0 0.00 0.00 0.00 12 1020.4
20180425221347 80 34 2.0 4.0 0.00 0.00 0.00 13 1020.7
20180425220836 80 69 2.0 5.0 0.00 0.00 0.00 13 1020.7
20180425220350 79 81 1.0 5.0 0.00 0.00 0.00 12 1020.7
20180425215832 79 64 1.0 4.0 0.00 0.00 0.00 15 1020.8
20180425215348 79 135 1.0 5.0 0.00 0.00 0.00 12 1020.8
20180425214849 79 191 2.0 5.0 0.00 0.00 0.00 14 1020.8
20180425214343 79 187 1.0 4.0 0.00 0.00 0.00 14 1020.9
20180425213832 79 135 2.0 4.0 0.00 0.00 0.00 13 1020.9
20180425213345 79 245 1.0 4.0 0.00 0.00 0.00 13 1020.9
20180425212836 80 112 2.0 5.0 0.00 0.00 0.00 12 1021.2
20180425212352 79 90 1.0 5.0 0.00 0.00 0.00 12 1021.2
20180425211836 79 90 1.0 6.0 0.00 0.00 0.00 12 1021.2
20180425211333 79 92 3.0 6.0 0.00 0.00 0.00 12 1021.9
20180425210840 80 120 1.0 9.0 0.00 0.00 0.00 14 1021.9
20180425210353 80 151 1.0 9.0 0.00 0.00 0.00 14 1021.9
20180425205835 80 171 2.0 3.0 0.00 0.00 0.00 13 1021.5
20180425205344 79 58 2.0 3.0 0.00 0.00 0.00 12 1021.5
20180425204834 79 134 1.0 4.0 0.00 0.00 0.00 12 1021.5
20180425204351 78 116 2.0 7.0 0.00 0.00 0.00 12 1022.0
20180425203833 79 77 2.0 7.0 0.00 0.00 0.00 14 1022.0
20180425203347 79 7 1.0 6.0 0.00 0.00 0.00 15 1022.0
20180425202847 79 91 3.0 6.0 0.00 0.00 0.00 15 1021.5
20180425202341 77 205 1.0 5.0 0.00 0.00 0.00 17 1021.5
20180425201850 78 210 2.0 4.0 0.00 0.00 0.00 18 1021.5
20180425201342 78 187 1.0 5.0 0.00 0.00 0.00 16 1022.4
20180425200849 78 112 1.0 5.0 0.00 0.00 0.00 16 1022.4
20180425200342 78 96 0.0 5.0 0.00 0.00 0.00 17 1022.4
20180425195833 77 151 1.0 4.0 0.00 0.00 0.00 15 1022.5
20180425195350 77 151 1.0 5.0 0.00 0.00 0.00 17 1022.5
20180425194830 77 126 1.0 5.0 0.00 0.00 0.00 16 1022.5
20180425194349 77 158 1.0 3.0 0.00 0.00 0.00 18 1022.7
20180425193834 76 191 0.0 3.0 0.00 0.00 0.00 18 1022.7
20180425193346 77 191 2.0 3.0 0.00 0.00 0.00 19 1022.7
20180425192842 76 236 1.0 3.0 0.00 0.00 0.00 19 1022.5
20180425192338 75 160 1.0 4.0 0.00 0.00 0.00 20 1022.5
20180425191847 75 77 2.0 4.0 0.00 0.00 0.00 19 1022.5
20180425191342 75 178 2.0 7.0 0.00 0.00 0.00 19 1022.6
20180425190848 75 157 3.0 7.0 0.00 0.00 0.00 20 1022.6
20180425190343 75 115 1.0 3.0 0.00 0.00 0.00 19 1022.6
20180425185842 74 108 1.0 3.0 0.00 0.00 0.00 17 1022.8
20180425185356 74 212 1.0 4.0 0.00 0.00 0.00 21 1022.8
20180425184837 74 154 0.0 4.0 0.00 0.00 0.00 20 1022.8
20180425184347 73 166 1.0 3.0 0.00 0.00 0.00 20 1023.3
20180425183836 71 360 1.0 3.0 0.00 0.00 0.00 20 1023.3
20180425183358 72 59 2.0 4.0 0.00 0.00 0.00 19 1023.3
20180425182839 72 107 1.0 4.0 0.00 0.00 0.00 21 1023.3
20180425182352 71 177 2.0 4.0 0.00 0.00 0.00 21 1023.3
20180425181836 71 117 0.0 2.0 0.00 0.00 0.00 21 1023.3
20180425181350 71 102 0.0 4.0 0.00 0.00 0.00 21 1023.4
20180425180832 70 102 2.0 4.0 0.00 0.00 0.00 22 1023.4
20180425180341 70 54 2.0 4.0 0.00 0.00 0.00 22 1023.4
20180425175840 70 112 1.0 3.0 0.00 0.00 0.00 23 1023.8
20180425175353 69 147 1.0 4.0 0.00 0.00 0.00 26 1023.8
20180425174834 68 94 2.0 4.0 0.00 0.00 0.00 27 1023.8
20180425174347 67 108 1.0 3.0 0.00 0.00 0.00 28 1023.6
20180425173847 67 149 1.0 3.0 0.00 0.00 0.00 27 1023.6
20180425173341 67 149 1.0 3.0 0.00 0.00 0.00 26 1023.6
20180425172850 66 149 0.0 2.0 0.00 0.00 0.00 30 1023.2
20180425172340 65 149 1.0 2.0 0.00 0.00 0.00 30 1023.2
20180425171848 65 149 0.0 4.0 0.00 0.00 0.00 30 1023.2
20180425171342 65 149 2.0 4.0 0.00 0.00 0.00 30 1023.7
20180425170849 64 133 1.0 3.0 0.00 0.00 0.00 31 1023.7
20180425170343 63 133 1.0 3.0 0.00 0.00 0.00 32 1023.7
20180425165851 62 133 1.0 3.0 0.00 0.00 0.00 36 1023.3
20180425165344 62 131 2.0 3.0 0.00 0.00 0.00 34 1023.3
20180425164844 62 131 1.0 3.0 0.00 0.00 0.00 35 1023.3
20180425164353 61 181 1.0 4.0 0.00 0.00 0.00 36 1023.7
20180425163851 61 145 1.0 4.0 0.00 0.00 0.00 38 1023.7
20180425163345 59 18 0.0 3.0 0.00 0.00 0.00 38 1023.7
20180425162846 59 18 1.0 2.0 0.00 0.00 0.00 40 1023.9
20180425162342 58 18 1.0 2.0 0.00 0.00 0.00 40 1023.9
20180425161850 57 18 0.0 3.0 0.00 0.00 0.00 41 1023.9
20180425161343 57 18 1.0 3.0 0.00 0.00 0.00 41 1023.7
20180425160851 57 18 1.0 2.0 0.00 0.00 0.00 42 1023.7
20180425160344 57 5 1.0 2.0 0.00 0.00 0.00 42 1023.7
20180425155848 55 5 0.0 2.0 0.00 0.00 0.00 43 1024.1
20180425155341 55 5 1.0 2.0 0.00 0.00 0.00 41 1024.1
20180425154846 54 5 0.0 2.0 0.00 0.00 0.00 42 1024.1
20180425154340 54 5 1.0 2.0 0.00 0.00 0.00 42 1023.7
20180425153847 53 5 0.0 2.0 0.00 0.00 0.00 43 1023.7
20180425153340 52 5 1.0 2.0 0.00 0.00 0.00 43 1023.7
20180425152848 52 5 1.0 2.0 0.00 0.00 0.00 44 1024.0
20180425152342 51 5 0.0 1.0 0.00 0.00 0.00 46 1024.0
20180425151842 50 5 0.0 1.0 0.00 0.00 0.00 47 1024.0
20180425151336 50 5 0.0 1.0 0.00 0.00 0.00 48 1024.0
20180425150844 49 5 0.0 1.0 0.00 0.00 0.00 49 1024.0
20180425150341 48 5 0.0 1.0 0.00 0.00 0.00 50 1024.0
20180425145847 48 5 0.0 1.0 0.00 0.00 0.00 52 1023.4
20180425145343 47 5 0.0 0.0 0.00 0.00 0.00 53 1023.4
20180425144849 46 5 0.0 0.0 0.00 0.00 0.00 56 1023.4
20180425144341 46 5 0.0 0.0 0.00 0.00 0.00 57 1023.5
20180425143851 45 5 0.0 0.0 0.00 0.00 0.00 59 1023.5
20180425143340 45 5 0.0 0.0 0.00 0.00 0.00 61 1023.5
20180425142849 44 5 0.0 0.0 0.00 0.00 0.00 63 1023.9
20180425142342 43 5 0.0 0.0 0.00 0.00 0.00 65 1023.9
20180425141840 43 5 0.0 0.0 0.00 0.00 0.00 66 1023.9
20180425141333 42 5 0.0 0.0 0.00 0.00 0.00 67 1023.7
20180425140846 41 5 0.0 0.0 0.00 0.00 0.00 68 1023.7
20180425140342 41 5 0.0 0.0 0.00 0.00 0.00 68 1023.7
20180425135849 40 5 0.0 0.0 0.00 0.00 0.00 68 1023.6
20180425135343 40 5 0.0 0.0 0.00 0.00 0.00 69 1023.6
20180425134848 40 5 0.0 0.0 0.00 0.00 0.00 69 1023.6
20180425134342 40 5 0.0 0.0 0.00 0.00 0.00 69 1023.3
20180425133832 40 5 0.0 0.0 0.00 0.00 0.00 69 1023.3
20180425133345 40 5 0.0 0.0 0.00 0.00 0.00 69 1023.3
20180425132845 40 5 0.0 0.0 0.00 0.00 0.00 68 1023.1
20180425132342 40 5 0.0 0.0 0.00 0.00 0.00 68 1023.1
20180425131841 40 5 0.0 0.0 0.00 0.00 0.00 68 1023.1
20180425131355 40 5 0.0 0.0 0.00 0.00 0.00 68 1023.3
20180425130832 40 5 0.0 1.0 0.00 0.00 0.00 67 1023.3
20180425130346 41 5 0.0 1.0 0.00 0.00 0.00 67 1023.3
20180425125836 41 5 0.0 0.0 0.00 0.00 0.00 66 1023.2
20180425125331 41 5 0.0 0.0 0.00 0.00 0.00 65 1023.2
20180425124845 41 5 0.0 0.0 0.00 0.00 0.00 66 1023.2
20180425124339 41 5 0.0 0.0 0.00 0.00 0.00 66 1023.2
20180425123848 41 5 0.0 0.0 0.00 0.00 0.00 66 1023.2
20180425123342 41 5 0.0 0.0 0.00 0.00 0.00 66 1023.2
20180425122847 41 5 0.0 0.0 0.00 0.00 0.00 66 1023.2
20180425122337 41 5 0.0 0.0 0.00 0.00 0.00 66 1023.2
20180425121849 41 5 0.0 0.0 0.00 0.00 0.00 66 1023.2
20180425121340 41 5 0.0 0.0 0.00 0.00 0.00 66 1022.9
20180425120848 42 5 0.0 0.0 0.00 0.00 0.00 66 1022.9
20180425120342 42 5 0.0 0.0 0.00 0.00 0.00 64 1022.9
20180425115843 42 5 0.0 0.0 0.00 0.00 0.00 64 1022.9
20180425115339 42 5 0.0 0.0 0.00 0.00 0.00 64 1022.9
20180425114846 42 5 0.0 0.0 0.00 0.00 0.00 65 1022.9
20180425114342 42 5 0.0 0.0 0.00 0.00 0.00 64 1022.5
20180425113846 43 5 0.0 0.0 0.00 0.00 0.00 63 1022.5
20180425113340 43 5 0.0 0.0 0.00 0.00 0.00 62 1022.5
20180425112848 43 5 0.0 0.0 0.00 0.00 0.00 62 1022.3
20180425112342 43 5 0.0 0.0 0.00 0.00 0.00 61 1022.3
20180425111847 43 5 0.0 0.0 0.00 0.00 0.00 61 1022.3
20180425111341 43 5 0.0 0.0 0.00 0.00 0.00 61 1022.3
20180425110846 44 5 0.0 0.0 0.00 0.00 0.00 60 1022.3
20180425110340 44 5 0.0 0.0 0.00 0.00 0.00 60 1022.3
20180425105845 44 5 0.0 0.0 0.00 0.00 0.00 60 1022.1
20180425105339 44 5 0.0 0.0 0.00 0.00 0.00 60 1022.1
20180425104845 44 5 0.0 0.0 0.00 0.00 0.00 59 1022.1
20180425104338 44 5 0.0 0.0 0.00 0.00 0.00 58 1022.1
20180425103848 44 5 0.0 0.0 0.00 0.00 0.00 58 1022.1
20180425103343 44 5 0.0 0.0 0.00 0.00 0.00 58 1022.1
20180425102845 44 5 0.0 1.0 0.00 0.00 0.00 57 1022.1
20180425102339 44 5 0.0 1.0 0.00 0.00 0.00 57 1022.1
20180425101850 44 5 0.0 1.0 0.00 0.00 0.00 57 1022.1
20180425101340 44 5 0.0 0.0 0.00 0.00 0.00 56 1022.4
20180425100848 44 5 0.0 0.0 0.00 0.00 0.00 56 1022.4
20180425100343 44 5 0.0 0.0 0.00 0.00 0.00 56 1022.4
20180425095845 44 5 0.0 0.0 0.00 0.00 0.00 56 1022.4
20180425095341 44 5 0.0 0.0 0.00 0.00 0.00 57 1022.4
20180425094846 44 5 0.0 0.0 0.00 0.00 0.00 56 1022.4
20180425094340 44 5 0.0 0.0 0.00 0.00 0.00 55 1022.5
20180425093848 44 5 0.0 0.0 0.00 0.00 0.00 55 1022.5
20180425093342 44 5 0.0 0.0 0.00 0.00 0.00 56 1022.5
20180425092843 44 5 0.0 0.0 0.00 0.00 0.00 55 1022.3
20180425092336 45 5 0.0 1.0 0.00 0.00 0.00 54 1022.3
20180425091845 45 5 0.0 1.0 0.00 0.00 0.00 53 1022.3
20180425091339 45 5 0.0 1.0 0.00 0.00 0.00 53 1022.9
20180425090849 45 5 0.0 0.0 0.00 0.00 0.00 54 1022.9
20180425090342 45 5 0.0 0.0 0.00 0.00 0.00 54 1022.9
20180425085842 45 5 0.0 0.0 0.00 0.00 0.00 53 1022.9
20180425085341 45 5 0.0 0.0 0.00 0.00 0.00 53 1022.9
20180425084841 45 5 0.0 0.0 0.00 0.00 0.00 54 1022.9
20180425084335 45 5 0.0 0.0 0.00 0.00 0.00 53 1022.9
20180425083848 46 5 0.0 0.0 0.00 0.00 0.00 53 1022.9
20180425083344 45 5 0.0 0.0 0.00 0.00 0.00 53 1022.9
20180425082843 45 5 0.0 0.0 0.00 0.00 0.00 52 1022.6
20180425082340 46 5 0.0 0.0 0.00 0.00 0.00 52 1022.6
20180425081846 46 5 0.0 0.0 0.00 0.00 0.00 52 1022.6
20180425081342 46 5 0.0 0.0 0.00 0.00 0.00 51 1023.0
20180425080844 46 5 0.0 0.0 0.00 0.00 0.00 50 1023.0
20180425080337 47 5 0.0 0.0 0.00 0.00 0.00 48 1023.0
20180425075844 47 5 0.0 0.0 0.00 0.00 0.00 47 1022.9
20180425075339 47 5 0.0 0.0 0.00 0.00 0.00 47 1022.9
20180425074849 48 5 0.0 0.0 0.00 0.00 0.00 47 1022.9
20180425074343 48 5 0.0 1.0 0.00 0.00 0.00 45 1022.5
20180425073851 48 5 0.0 1.0 0.00 0.00 0.00 45 1022.5
20180425073344 49 5 0.0 1.0 0.00 0.00 0.00 44 1022.5
20180425072842 49 5 1.0 1.0 0.00 0.00 0.00 45 1022.4
20180425072335 49 5 0.0 0.0 0.00 0.00 0.00 45 1022.4
20180425071843 49 5 0.0 0.0 0.00 0.00 0.00 44 1022.4
20180425071357 49 5 0.0 0.0 0.00 0.00 0.00 45 1022.7
20180425070837 49 5 0.0 0.0 0.00 0.00 0.00 45 1022.7
20180425070359 49 5 0.0 0.0 0.00 0.00 0.00 45 1022.7
20180425065844 49 5 0.0 0.0 0.00 0.00 0.00 44 1022.2
20180425065339 49 5 0.0 0.0 0.00 0.00 0.00 45 1022.2
20180425064848 49 5 0.0 0.0 0.00 0.00 0.00 45 1022.2
20180425064342 50 5 0.0 0.0 0.00 0.00 0.00 44 1022.2
20180425063848 50 5 0.0 0.0 0.00 0.00 0.00 43 1022.2
20180425063343 50 5 0.0 0.0 0.00 0.00 0.00 44 1022.2
20180425062844 50 5 0.0 0.0 0.00 0.00 0.00 42 1022.1
20180425062337 50 5 0.0 0.0 0.00 0.00 0.00 42 1022.1
20180425061844 50 5 0.0 0.0 0.00 0.00 0.00 42 1022.1
20180425061337 51 5 0.0 0.0 0.00 0.00 0.00 42 1022.5
20180425060844 51 5 0.0 0.0 0.00 0.00 0.00 40 1022.5
20180425060338 51 5 0.0 0.0 0.00 0.00 0.00 39 1022.5
20180425055840 51 5 0.0 0.0 0.00 0.00 0.00 40 1022.6
20180425055333 51 5 0.0 0.0 0.00 0.00 0.00 39 1022.6
20180425054841 52 5 0.0 0.0 0.00 0.00 0.00 38 1022.6
20180425054338 52 5 0.0 0.0 0.00 0.00 0.00 38 1022.3
20180425053845 52 5 0.0 1.0 0.00 0.00 0.00 38 1022.3
20180425053339 53 5 0.0 1.0 0.00 0.00 0.00 38 1022.3
20180425052844 53 5 0.0 1.0 0.00 0.00 0.00 37 1022.3
20180425052338 53 5 0.0 1.0 0.00 0.00 0.00 36 1022.3
20180425051845 54 5 0.0 1.0 0.00 0.00 0.00 36 1022.3
20180425051337 54 5 0.0 0.0 0.00 0.00 0.00 34 1022.6
20180425050838 54 5 0.0 0.0 0.00 0.00 0.00 34 1022.6
20180425050353 54 5 0.0 0.0 0.00 0.00 0.00 34 1022.6
20180425045838 55 5 0.0 0.0 0.00 0.00 0.00 33 1022.2
20180425045357 55 5 0.0 0.0 0.00 0.00 0.00 33 1022.2
20180425044841 56 5 0.0 0.0 0.00 0.00 0.00 33 1022.2
20180425044337 56 5 0.0 0.0 0.00 0.00 0.00 31 1022.1
20180425043844 57 5 0.0 1.0 0.00 0.00 0.00 30 1022.1
20180425043338 57 5 0.0 1.0 0.00 0.00 0.00 30 1022.1
20180425042844 57 5 0.0 1.0 0.00 0.00 0.00 30 1022.6
20180425042341 58 5 0.0 1.0 0.00 0.00 0.00 30 1022.6
20180425041842 58 5 0.0 2.0 0.00 0.00 0.00 29 1022.6
20180425041337 59 5 0.0 2.0 0.00 0.00 0.00 29 1022.0
20180425040839 59 5 0.0 2.0 0.00 0.00 0.00 29 1022.0
20180425040352 59 5 1.0 3.0 0.00 0.00 0.00 27 1022.0
20180425035835 60 5 1.0 3.0 0.00 0.00 0.00 27 1021.7
20180425035333 60 5 0.0 3.0 0.00 0.00 0.00 28 1021.7